Weather History for Angleton, TX

Change the Weather History Date:

Friday, February 22, 2013

  Actual Average Record
Temperature  
Mean Temperature 62 °F -  
Max Temperature 68 °F 64 °F 78 °F (2012)
Min Temperature 57 °F 48 °F 34 °F (2009)
Degree Days  
Heating Degree Days 2    
Growing Degree Days 12 (Base 50)    
Moisture  
Dew Point 48 °F    
Average Humidity 60    
Maximum Humidity 81    
Minimum Humidity 40    
Precipitation  
Precipitation 0.00 in - - ()
Sea Level Pressure  
Sea Level Pressure 29.90 in    
Wind  
Wind Speed 9 mph (NE)    
Max Wind Speed 16 mph    
Max Gust Speed 22 mph    
Visibility 10 miles    
Events      
Averages and records for this station are not official NWS values.
T = Trace of Precipitation, MM = Missing Value Source: NWS Daily Summary

Daily Weather History Graph

Daily Weather History Graph

Search for Another Location

Airport:

Trip Planner

Search our weather history database for the weather conditions in past years. The results will help you decide how hot, cold, wet, or windy it might be!

Date:

Astronomy

Feb. 22, 2013 Rise Set
Actual Time 6:54 AM CST 6:16 PM CST
Civil Twilight 6:30 AM CST 6:40 PM CST
Nautical Twilight 6:02 AM CST 7:08 PM CST
Astronomical Twilight 5:34 AM CST 7:36 PM CST
Moon 3:37 PM CST (2/22) 4:30 AM CST (2/22)
Length of Visible Light 12h 10m
Length of Day
11h 22m
Waxing Gibbous, 90% of the Moon is Illuminated
Feb 22
Waxing Gibbous
Feb 25
Full
Mar 4
Last Quarter
Mar 11
New
Mar 19
First Quarter

Hourly Weather History & Observations

Time (CST) Temp. Dew Point Humidity Pressure Visibility Wind Dir Wind Speed Gust Speed Precip Events Conditions
12:53 AM 60.1 °F 51.1 °F 72% 29.83 in 10.0 mi ESE 4.6 mph - N/A   Clear
1:53 AM 59.0 °F 53.1 °F 81% 29.83 in 10.0 mi NE 6.9 mph - N/A   Clear
2:53 AM 60.1 °F 54.0 °F 80% 29.84 in 10.0 mi NE 4.6 mph - N/A   Clear
3:53 AM 61.0 °F 53.1 °F 75% 29.85 in 10.0 mi NNE 6.9 mph - N/A   Clear
4:53 AM 60.1 °F 52.0 °F 75% 29.87 in 10.0 mi NNE 6.9 mph - N/A   Mostly Cloudy
5:53 AM 61.0 °F 46.9 °F 60% 29.88 in 10.0 mi NE 9.2 mph - N/A   Partly Cloudy
6:53 AM 61.0 °F 43.0 °F 52% 29.89 in 10.0 mi NE 11.5 mph - N/A   Overcast
7:53 AM 61.0 °F 41.0 °F 48% 29.91 in 10.0 mi NE 12.7 mph - N/A   Overcast
8:53 AM 63.0 °F 44.1 °F 50% 29.93 in 10.0 mi NE 11.5 mph 17.3 mph N/A   Overcast
9:53 AM 64.9 °F 45.0 °F 48% 29.94 in 10.0 mi ENE 15.0 mph 19.6 mph N/A   Overcast
10:53 AM 66.9 °F 46.9 °F 49% 29.93 in 10.0 mi NE 16.1 mph - N/A   Overcast
11:53 AM 66.9 °F 46.0 °F 47% 29.94 in 10.0 mi NE 11.5 mph 18.4 mph N/A   Overcast
12:53 PM 68.0 °F 43.0 °F 40% 29.92 in 10.0 mi NE 11.5 mph 21.9 mph N/A   Mostly Cloudy
1:53 PM 68.0 °F 44.1 °F 42% 29.89 in 10.0 mi ENE 13.8 mph - N/A   Overcast
2:53 PM 68.0 °F 45.0 °F 43% 29.87 in 10.0 mi NE 16.1 mph 19.6 mph N/A   Overcast
3:53 PM 66.9 °F 43.0 °F 42% 29.88 in 10.0 mi ENE 11.5 mph - N/A   Overcast
4:53 PM 66.0 °F 45.0 °F 47% 29.86 in 10.0 mi NE 12.7 mph - N/A   Overcast
5:53 PM 64.9 °F 46.0 °F 50% 29.88 in 10.0 mi NE 9.2 mph - N/A   Overcast
6:53 PM 64.0 °F 52.0 °F 65% 29.89 in 10.0 mi NNE 11.5 mph - N/A   Overcast
7:53 PM 62.1 °F 52.0 °F 70% 29.91 in 10.0 mi NNE 9.2 mph - N/A   Overcast
8:53 PM 61.0 °F 51.1 °F 70% 29.93 in 10.0 mi NNE 11.5 mph - N/A   Overcast
9:53 PM 59.0 °F 51.1 °F 75% 29.95 in 10.0 mi North 12.7 mph - N/A   Overcast
10:53 PM 57.9 °F 50.0 °F 75% 29.96 in 10.0 mi North 12.7 mph - N/A   Overcast
11:53 PM 57.0 °F 48.9 °F 74% 29.95 in 10.0 mi North 13.8 mph - N/A   Overcast